Location: NJAA Observatory
(40.6819°N, 74.8979°W)
Time: 13:48:58
(UTC-04:00)

Iridium 4 - Visible Passes

Search period start: 29 April 2016 00:00
Search period end: 09 May 2016 00:00
Orbit: 773 x 776 km, 86.4° (Epoch: 29 April)

Date Brightness Start Highest point End Pass type
(mag) Time Alt. Az. Time Alt. Az. Time Alt. Az.
29 Apr 8.4 20:26:44 10° SW 20:30:36 21° WNW 20:34:27 10° NNW visible
30 Apr 9.1 05:17:05 10° NE 05:18:43 11° ENE 05:20:21 10° E visible
02 May 8.7 20:25:18 10° WSW 20:28:17 15° WNW 20:31:17 10° NW visible
03 May 8.6 05:13:20 10° NE 05:16:27 16° ENE 05:19:33 10° ESE visible
06 May 8.4 05:10:11 10° NNE 05:14:09 21° ENE 05:18:04 10° SE visible
07 May 8.9 04:37:46 10° NE 04:39:24 11° ENE 04:41:01 10° E visible
